EW9596 Weather Reports


time (UTC)temp
F
wind
direction
speed
knots
gust
knots
rain 1hr
in
rain 24hr
in
rain mn
in
humidity
%
barometer
mb
20260509200549 55 313 0.0 3.5 0.00 0.22 0.22 89 1008.8
20260509200048 55 325 1.7 3.5 0.00 0.22 0.22 89 1008.9
20260509195548 54 311 0.0 2.6 0.00 0.22 0.22 89 1009.0
20260509195051 54 277 0.9 4.3 0.00 0.22 0.22 89 1009.0
20260509194546 54 257 0.9 4.3 0.00 0.22 0.22 89 1009.1
20260509194047 54 292 0.0 3.5 0.00 0.22 0.22 89 1009.2
20260509193545 54 293 0.0 2.6 0.01 0.22 0.22 89 1009.2
20260509193046 54 273 0.0 4.3 0.02 0.22 0.22 89 1009.2
20260509192548 54 273 0.9 4.3 0.02 0.22 0.22 89 1009.2
20260509192044 54 249 0.0 0.0 0.02 0.22 0.22 89 1009.3
20260509191551 54 268 0.0 0.0 0.02 0.22 0.22 89 1009.4
20260509191048 54 268 0.0 0.0 0.02 0.22 0.22 89 1009.4
20260509190542 54 268 0.0 0.0 0.02 0.22 0.22 89 1009.5
20260509190044 54 268 0.0 0.0 0.02 0.22 0.22 89 1009.5
20260509185543 54 267 0.0 0.0 0.02 0.22 0.22 89 1009.5
20260509185045 54 267 0.0 3.5 0.02 0.22 0.22 89 1009.5
20260509184543 54 292 0.0 3.5 0.02 0.22 0.22 89 1009.5
20260509184042 54 239 0.0 2.6 0.02 0.22 0.22 89 1009.5
20260509183543 54 290 0.0 3.5 0.01 0.21 0.21 89 1009.5
20260509183043 54 291 0.9 3.5 0.00 0.20 0.20 89 1009.4
20260509182542 54 306 0.0 2.6 0.00 0.20 0.20 89 1009.5
20260509182042 54 304 0.0 2.6 0.00 0.20 0.20 89 1009.5
20260509181543 54 322 0.0 2.6 0.00 0.20 0.20 89 1009.4
20260509181041 54 37 0.0 2.6 0.00 0.20 0.20 89 1009.4
20260509180543 54 277 0.0 2.6 0.00 0.20 0.20 89 1009.4
20260509180040 54 281 0.0 3.5 0.00 0.20 0.20 89 1009.4
20260509175540 54 286 0.0 5.2 0.00 0.20 0.20 89 1009.4
20260509175044 54 244 0.9 5.2 0.00 0.20 0.20 89 1009.4
20260509174551 54 223 1.7 5.2 0.00 0.20 0.20 89 1009.3
20260509174039 54 246 0.0 7.0 0.00 0.20 0.20 90 1009.3
20260509173540 54 150 1.7 7.0 0.00 0.20 0.20 90 1009.4
20260509173044 54 308 0.0 4.3 0.00 0.20 0.20 90 1009.4
20260509172541 53 188 0.9 5.2 0.00 0.20 0.20 90 1009.3
20260509172038 53 281 0.9 5.2 0.00 0.20 0.20 90 1009.3
20260509171544 53 158 1.7 7.8 0.00 0.20 0.20 90 1009.4
20260509171036 53 113 2.6 6.1 0.00 0.20 0.20 90 1009.3
20260509170536 53 236 0.0 4.3 0.00 0.20 0.20 90 1009.3
20260509170040 53 136 1.7 4.3 0.00 0.20 0.20 90 1009.4
20260509165535 53 206 0.0 0.0 0.00 0.20 0.20 90 1009.4
20260509165035 53 209 0.0 0.0 0.00 0.20 0.20 90 1009.4
20260509164536 53 207 0.0 1.7 0.00 0.20 0.20 90 1009.5
20260509164034 53 192 0.0 3.5 0.00 0.20 0.20 90 1009.5
20260509163534 53 287 0.0 3.5 0.00 0.20 0.20 90 1009.6
20260509163034 53 263 1.7 3.5 0.00 0.20 0.20 91 1009.6
20260509162533 53 126 0.9 3.5 0.00 0.20 0.20 91 1009.6
20260509162036 53 346 0.0 2.6 0.00 0.20 0.20 91 1009.7
20260509161533 53 254 0.0 0.0 0.00 0.20 0.20 91 1009.7
20260509161033 53 241 0.0 0.0 0.00 0.20 0.20 91 1009.8
20260509160530 53 239 0.0 0.0 0.00 0.20 0.20 91 1009.9
20260509160030 53 237 0.0 0.0 0.00 0.20 0.20 91 1009.9
20260509155529 53 237 0.0 0.0 0.00 0.20 0.20 91 1010.0
20260509155029 52 237 0.0 0.0 0.00 0.20 0.20 91 1010.0
20260509154533 52 237 0.0 1.7 0.01 0.20 0.20 91 1009.9
20260509154030 52 237 0.0 2.6 0.01 0.20 0.20 91 1010.0
20260509153528 52 236 0.0 4.3 0.01 0.20 0.20 91 1010.1
20260509153032 52 342 0.0 4.3 0.01 0.20 0.20 91 1010.0
20260509152527 52 355 0.0 0.0 0.01 0.20 0.20 91 1010.0
20260509152027 52 360 0.0 0.0 0.01 0.20 0.20 91 1010.1
20260509151527 52 355 0.0 0.0 0.02 0.20 0.20 91 1010.2
20260509151024 52 12 0.0 0.0 0.02 0.20 0.20 91 1010.2
20260509150524 52 12 0.0 0.0 0.02 0.20 0.20 91 1010.3
20260509150023 52 12 0.0 0.0 0.02 0.20 0.20 91 1010.3
20260509145523 52 34 0.0 0.0 0.02 0.20 0.20 91 1010.4
20260509145021 52 34 0.0 0.0 0.02 0.20 0.20 91 1010.5
20260509144521 52 36 0.0 0.0 0.01 0.19 0.19 90 1010.6
20260509144019 52 36 0.0 0.0 0.01 0.19 0.19 91 1010.6
20260509143518 51 37 0.0 0.0 0.02 0.19 0.19 91 1010.7
20260509143021 51 37 0.0 0.0 0.02 0.19 0.19 91 1010.7
20260509142517 51 37 0.0 0.0 0.02 0.19 0.19 90 1010.7
20260509142017 51 37 0.0 0.0 0.02 0.19 0.19 90 1010.7
20260509141517 51 37 0.0 0.0 0.01 0.18 0.18 90 1010.7
20260509141015 51 37 0.0 0.0 0.01 0.18 0.18 90 1010.7
20260509140516 51 36 0.0 0.0 0.01 0.18 0.18 90 1010.7
20260509140013 51 37 0.0 0.0 0.01 0.18 0.18 90 1010.7
20260509135514 51 37 0.0 0.0 0.02 0.18 0.18 90 1010.7
20260509135015 51 36 0.0 0.0 0.02 0.18 0.18 90 1010.6
20260509134512 51 11 0.0 0.0 0.02 0.18 0.18 90 1010.7
20260509134010 50 11 0.0 0.0 0.02 0.17 0.17 90 1010.7
20260509133510 50 11 0.0 0.0 0.02 0.17 0.17 90 1010.7
20260509133009 50 11 0.0 0.0 0.03 0.17 0.17 90 1010.7
20260509132509 50 10 0.0 0.0 0.03 0.17 0.17 90 1010.9
20260509132008 50 107 0.0 0.0 0.03 0.17 0.17 90 1010.8
20260509131510 50 107 0.0 0.0 0.04 0.17 0.17 90 1010.8
20260509131004 50 108 0.0 0.0 0.04 0.17 0.17 89 1010.9
20260509130503 50 108 0.0 0.0 0.05 0.17 0.17 89 1010.9
20260509130002 50 108 0.0 0.0 0.05 0.17 0.17 89 1011.0
20260509125505 49 108 0.0 0.0 0.05 0.16 0.16 89 1011.0
20260509125001 49 108 0.0 0.0 0.06 0.16 0.16 89 1011.0
20260509124619 49 108 0.0 0.0 0.06 0.16 0.16 89 1011.1
20260509124100 49 108 0.0 0.0 0.05 0.15 0.15 89 1011.1
20260509123600 49 108 0.0 0.0 0.05 0.15 0.15 89 1011.1
20260509123059 49 108 0.0 0.0 0.05 0.14 0.14 89 1011.3
20260509122559 49 108 0.0 0.0 0.06 0.14 0.14 89 1011.2
20260509122058 49 108 0.0 0.0 0.06 0.14 0.14 89 1011.2
20260509121609 49 108 0.0 0.0 0.05 0.13 0.13 89 1011.2
20260509121054 49 108 0.0 0.0 0.05 0.13 0.13 89 1011.2
20260509120555 49 108 0.0 0.0 0.05 0.12 0.12 89 1011.3
20260509120052 48 108 0.0 0.0 0.05 0.12 0.12 89 1011.3
20260509115551 48 108 0.0 0.0 0.04 0.11 0.11 88 1011.4
20260509115052 48 108 0.0 0.0 0.03 0.10 0.10 88 1011.4
20260509114552 48 108 0.0 0.0 0.04 0.10 0.10 88 1011.3
20260509114049 48 108 0.0 0.0 0.04 0.10 0.10 88 1011.3
20260509113546 48 108 0.0 0.0 0.04 0.09 0.09 88 1011.3
20260509113051 48 107 0.0 0.0 0.04 0.09 0.09 88 1011.3
20260509112548 48 107 0.0 0.0 0.04 0.08 0.08 88 1011.3
20260509112043 48 107 0.0 0.0 0.05 0.08 0.08 88 1011.3
20260509111543 48 107 0.0 0.0 0.06 0.08 0.08 88 1011.4
20260509111043 47 107 0.0 0.0 0.07 0.08 0.08 88 1011.4
20260509110546 47 107 0.0 0.0 0.06 0.07 0.07 88 1011.3
20260509110041 47 107 0.0 0.0 0.06 0.07 0.07 88 1011.2
20260509105544 47 107 0.0 0.0 0.06 0.07 0.07 88 1011.2
20260509105041 47 107 0.0 0.0 0.06 0.07 0.07 88 1011.1
20260509104542 47 107 0.0 0.0 0.05 0.06 0.06 88 1011.1
20260509104039 47 107 0.0 0.0 0.05 0.06 0.06 87 1011.1
20260509103538 47 107 0.0 0.0 0.04 0.05 0.05 87 1011.2
20260509103038 47 107 0.0 0.0 0.04 0.05 0.05 87 1011.3
20260509102539 46 107 0.0 0.0 0.03 0.04 0.04 87 1011.2
20260509102039 46 107 0.0 0.0 0.02 0.03 0.03 87 1011.3
20260509101538 46 107 0.0 0.0 0.01 0.02 0.02 87 1011.3
20260509101036 46 107 0.0 0.0 0.00 0.01 0.01 87 1011.4
20260509100536 46 107 0.0 0.0 0.00 0.01 0.01 87 1011.3
20260509100036 46 107 0.0 0.0 0.00 0.01 0.01 87 1011.1
20260509095536 46 107 0.0 0.0 0.00 0.01 0.01 87 1011.2
20260509095036 46 107 0.0 0.0 0.00 0.01 0.01 86 1011.2
20260509094535 46 107 0.0 0.0 0.00 0.01 0.01 86 1011.2
20260509094035 46 107 0.0 0.0 0.00 0.01 0.01 86 1011.2
20260509093535 46 107 0.0 0.0 0.00 0.01 0.01 86 1011.1
20260509093034 46 107 0.0 0.0 0.00 0.01 0.01 86 1011.2
20260509092534 46 107 0.0 0.0 0.00 0.01 0.01 86 1011.3
20260509092038 46 107 0.0 0.0 0.00 0.01 0.01 86 1011.3
20260509091534 46 107 0.0 0.0 0.00 0.01 0.01 86 1011.2
20260509091033 46 107 0.0 0.0 0.00 0.01 0.01 86 1011.2
20260509090533 46 107 0.0 0.0 0.00 0.01 0.01 86 1011.3
20260509090033 46 107 0.0 0.0 0.00 0.01 0.01 86 1011.3
20260509085531 46 107 0.0 0.0 0.00 0.01 0.01 86 1011.3
20260509085031 46 107 0.0 0.0 0.00 0.01 0.01 86 1011.3
20260509084537 46 107 0.0 0.0 0.00 0.01 0.01 85 1011.3
20260509084031 46 107 0.0 0.0 0.00 0.01 0.01 85 1011.4
20260509083533 46 107 0.0 0.0 0.00 0.01 0.01 85 1011.4
20260509083043 46 107 0.0 0.0 0.00 0.01 0.01 85 1011.4
20260509082529 46 107 0.0 0.0 0.00 0.01 0.01 85 1011.5
20260509082028 46 107 0.0 0.0 0.00 0.01 0.01 85 1011.6
20260509081528 46 9 0.0 0.0 0.00 0.01 0.01 84 1011.7
20260509081029 46 9 0.0 0.0 0.00 0.01 0.01 84 1011.7
20260509080526 46 5 0.0 0.0 0.00 0.01 0.01 84 1011.7
20260509080028 46 122 0.0 0.0 0.00 0.01 0.01 83 1011.8
20260509075530 46 122 0.0 0.0 0.00 0.01 0.01 83 1011.9
20260509075026 46 122 0.0 0.0 0.00 0.01 0.01 83 1012.0
20260509074526 46 122 0.0 0.0 0.00 0.01 0.01 82 1012.0
20260509074025 46 122 0.0 0.0 0.00 0.01 0.01 82 1012.0
20260509073525 46 122 0.0 0.0 0.00 0.01 0.01 82 1012.0
20260509073025 46 122 0.0 0.0 0.00 0.01 0.01 81 1011.9
20260509072526 46 122 0.0 0.0 0.00 0.01 0.01 81 1011.9
20260509072024 46 122 0.0 0.0 0.00 0.01 0.01 81 1011.8
20260509071524 46 122 0.0 0.0 0.01 0.01 0.01 81 1011.8
20260509071023 46 122 0.0 0.0 0.01 0.01 0.01 81 1011.7
20260509070522 46 122 0.0 0.0 0.01 0.01 0.01 80 1011.7
20260509070022 46 122 0.0 0.0 0.01 0.01 0.01 79 1011.8
20260509065521 46 122 0.0 0.0 0.01 0.01 0.01 79 1011.8
20260509065021 46 122 0.0 0.0 0.01 0.01 0.01 79 1011.9
20260509064520 46 122 0.0 0.0 0.01 0.01 0.01 79 1011.9
20260509064023 46 122 0.0 0.0 0.01 0.01 0.01 79 1012.0
20260509063524 46 122 0.0 0.0 0.01 0.01 0.01 78 1012.0
20260509063018 46 122 0.0 0.0 0.01 0.01 0.01 78 1012.0
20260509062523 46 122 0.0 0.0 0.01 0.01 0.01 77 1012.1
20260509062023 46 122 0.0 0.0 0.01 0.01 0.01 77 1012.3
20260509061521 46 122 0.0 0.0 0.00 0.00 0.00 77 1012.3
20260509061016 46 122 0.0 0.0 0.00 0.00 0.00 77 1012.3
20260509060515 46 122 0.0 0.0 0.00 0.00 0.00 76 1012.4
20260509060015 46 122 0.0 0.0 0.00 0.00 0.00 76 1012.5
20260509055516 46 122 0.0 0.0 0.00 0.00 0.00 76 1012.5
20260509055014 46 122 0.0 0.0 0.00 0.00 0.00 75 1012.5
20260509054515 46 122 0.0 0.0 0.00 0.00 0.00 75 1012.5
20260509054014 46 122 0.0 0.0 0.00 0.00 0.00 75 1012.6
20260509053514 46 122 0.0 0.0 0.00 0.00 0.00 75 1012.5
20260509053014 46 122 0.0 0.0 0.00 0.00 0.00 75 1012.5
20260509052514 46 122 0.0 0.0 0.00 0.00 0.00 75 1012.6
20260509052013 46 122 0.0 0.0 0.00 0.00 0.00 74 1012.5
20260509051513 46 122 0.0 0.0 0.00 0.00 0.00 74 1012.6
20260509051115 46 122 0.0 0.0 0.00 0.00 0.00 74 1012.6
20260509050513 46 122 0.0 0.0 0.00 0.00 0.00 74 1012.4
20260509050013 46 122 0.0 0.0 0.00 0.00 0.00 74 1012.4
20260509045511 46 122 0.0 0.0 0.00 0.00 0.00 74 1012.4
20260509045011 46 122 0.0 0.0 0.00 0.00 0.00 73 1012.4
20260509044511 46 122 0.0 0.0 0.00 0.00 0.00 73 1012.5
20260509044013 46 122 0.0 0.0 0.00 0.00 0.00 74 1012.4
20260509043510 46 122 0.0 0.0 0.00 0.00 0.00 73 1012.6
20260509043010 46 122 0.0 0.0 0.00 0.00 0.00 72 1012.6
20260509042508 46 122 0.0 0.0 0.00 0.00 0.00 71 1012.7
20260509042009 46 122 0.0 0.0 0.00 0.00 0.00 71 1012.8
20260509041508 46 122 0.0 0.0 0.00 0.00 0.00 71 1012.8
20260509041008 46 122 0.0 0.0 0.00 0.00 0.00 71 1012.7
20260509040506 46 122 0.0 0.0 0.00 0.00 0.00 70 1012.7
20260509040006 46 122 0.0 0.0 0.00 0.00 0.00 70 1012.7
20260509035507 46 122 0.0 0.0 0.00 0.00 0.00 69 1012.7
20260509035005 46 122 0.0 0.0 0.00 0.00 0.00 69 1012.7
20260509034505 46 122 0.0 0.0 0.00 0.00 0.00 69 1012.8
20260509034005 46 122 0.0 0.0 0.00 0.00 0.00 69 1012.8
20260509033505 46 122 0.0 0.0 0.00 0.00 0.00 68 1012.8
20260509033005 46 122 0.0 0.0 0.00 0.00 0.00 68 1012.8
20260509032505 46 122 0.0 0.0 0.00 0.00 0.00 68 1012.8
20260509032006 46 122 0.0 0.0 0.00 0.00 0.00 68 1012.8
20260509031505 47 122 0.0 0.0 0.00 0.00 0.00 67 1012.7
20260509031004 47 122 0.0 0.0 0.00 0.00 0.00 67 1012.6
20260509030508 47 122 0.0 0.0 0.00 0.00 0.00 67 1012.7
20260509030004 47 122 0.0 0.0 0.00 0.00 0.00 66 1012.8
20260509025504 47 122 0.0 0.0 0.00 0.00 0.00 65 1012.8
20260509025003 47 122 0.0 0.0 0.00 0.00 0.00 65 1012.9
20260509024503 47 122 0.0 0.0 0.00 0.00 0.00 65 1012.9
20260509024004 48 122 0.0 0.0 0.00 0.00 0.00 64 1012.9
20260509023504 48 122 0.0 0.0 0.00 0.00 0.00 64 1012.9
20260509023003 48 122 0.0 0.0 0.00 0.00 0.00 64 1012.8
20260509022505 48 122 0.0 0.0 0.00 0.00 0.00 63 1012.7
20260509022003 49 122 0.0 0.0 0.00 0.00 0.00 62 1012.7
20260509021503 49 122 0.0 0.0 0.00 0.00 0.00 62 1012.7
20260509021002 49 122 0.0 0.0 0.00 0.00 0.00 61 1012.7
20260509020502 49 122 0.0 0.0 0.00 0.00 0.00 61 1012.7
20260509020002 50 122 0.0 0.0 0.00 0.00 0.00 61 1012.8
20260509015502 50 122 0.0 0.0 0.00 0.00 0.00 60 1012.8
20260509015002 50 122 0.0 0.0 0.00 0.00 0.00 59 1012.7
20260509014503 51 122 0.0 0.0 0.00 0.00 0.00 59 1012.7
20260509014001 51 122 0.0 0.0 0.00 0.00 0.00 58 1012.7
20260509013501 51 122 0.0 0.0 0.00 0.00 0.00 58 1012.7
20260509013002 52 122 0.0 0.0 0.00 0.00 0.00 58 1012.5
20260509012502 52 122 0.0 0.0 0.00 0.00 0.00 57 1012.4
20260509012002 52 122 0.0 0.0 0.00 0.00 0.00 57 1012.3
20260509011501 52 122 0.0 0.9 0.00 0.00 0.00 57 1012.3
20260509011103 53 122 0.0 0.9 0.00 0.00 0.00 56 1012.3
20260509010600 53 122 0.0 0.9 0.00 0.00 0.00 55 1012.3
20260509010502 53 122 0.0 0.9 0.00 0.00 0.00 55 1012.3
20260509010100 53 122 0.0 2.6 0.00 0.00 0.00 54 1012.2
20260509005604 53 122 0.9 2.6 0.00 0.00 0.00 53 1012.1
20260509005059 53 113 0.0 3.5 0.00 0.00 0.00 52 1012.1
20260509004603 53 138 1.7 3.5 0.00 0.00 0.00 54 1011.9
20260509004059 53 134 0.0 4.3 0.00 0.00 0.00 53 1011.9
20260509003600 53 128 0.0 4.3 0.00 0.00 0.00 52 1011.8
20260509003100 54 130 1.7 3.5 0.00 0.00 0.00 53 1011.8
20260509002604 54 109 0.9 2.6 0.00 0.00 0.00 53 1011.7
20260509002059 55 103 0.0 0.0 0.00 0.00 0.00 52 1011.7
20260509001559 55 99 0.0 0.0 0.00 0.00 0.00 52 1011.7
20260509001100 56 57 0.0 0.0 0.00 0.00 0.00 51 1011.6
20260509000557 56 28 0.0 0.0 0.00 0.00 0.00 50 1011.6
20260509000100 56 27 0.0 0.0 0.00 0.00 0.00 49 1011.4
20260508235559 57 27 0.0 0.0 0.00 0.00 0.00 48 1011.4
20260508235057 57 27 0.0 0.0 0.00 0.00 0.00 47 1011.4
20260508234659 57 27 0.0 0.0 0.00 0.00 0.00 47 1011.4
20260508234057 57 27 0.0 0.0 0.00 0.00 0.00 46 1011.3
20260508233557 58 27 0.0 0.0 0.00 0.00 0.00 46 1011.2
20260508233110 58 27 0.0 0.0 0.00 0.00 0.00 45 1011.1
20260508232556 58 27 0.0 0.0 0.00 0.00 0.00 44 1011.1
20260508232157 58 27 0.0 0.0 0.00 0.00 0.00 44 1011.1
20260508231559 58 26 0.0 0.0 0.00 0.00 0.00 44 1011.1
20260508231057 59 47 0.0 0.0 0.00 0.00 0.00 43 1011.1
20260508230556 59 49 0.0 1.7 0.00 0.00 0.00 43 1011.2
20260508230104 59 49 0.0 1.7 0.00 0.00 0.00 42 1011.1
20260508225556 59 55 0.9 4.3 0.00 0.00 0.00 42 1011.0
20260508225056 59 48 0.9 4.3 0.00 0.00 0.00 41 1011.1
20260508224556 60 355 1.7 4.3 0.00 0.00 0.00 41 1011.1
20260508224056 60 34 0.0 3.5 0.00 0.00 0.00 41 1011.2
20260508223555 60 34 0.9 5.2 0.00 0.00 0.00 41 1011.1
20260508223056 60 40 1.7 5.2 0.00 0.00 0.00 41 1011.1
20260508222555 60 55 1.7 3.5 0.00 0.00 0.00 41 1011.0
20260508222057 60 248 0.9 5.2 0.00 0.00 0.00 40 1011.0
20260508221555 60 233 0.9 6.1 0.00 0.00 0.00 41 1011.0
20260508221055 60 214 0.9 6.1 0.00 0.00 0.00 41 1011.0
20260508220554 60 272 2.6 5.2 0.00 0.00 0.00 41 1011.0
20260508220057 61 273 1.7 7.8 0.00 0.00 0.00 42 1011.0
20260508215553 61 253 1.7 7.8 0.00 0.00 0.00 42 1011.1
20260508215053 61 187 2.6 5.2 0.00 0.00 0.00 40 1011.1
20260508214552 60 219 0.9 4.3 0.00 0.00 0.00 40 1011.1
20260508214052 60 261 1.7 6.1 0.00 0.00 0.00 41 1011.2
20260508213550 60 207 0.9 7.8 0.00 0.00 0.00 43 1011.2
20260508213050 59 13 2.6 7.8 0.00 0.00 0.00 43 1011.2
20260508212549 59 331 1.7 4.3 0.00 0.00 0.00 43 1011.3
20260508212049 59 246 0.9 5.2 0.00 0.00 0.00 43 1011.3
20260508211549 59 272 1.7 7.8 0.00 0.00 0.00 42 1011.3
20260508211048 59 227 1.7 6.1 0.00 0.00 0.00 41 1011.4
20260508210551 59 297 0.0 6.1 0.00 0.00 0.00 42 1011.3
20260508210047 59 286 0.9 8.7 0.00 0.00 0.00 42 1011.4
20260508205546 59 291 2.6 8.7 0.00 0.00 0.00 42 1011.5
20260508205047 59 226 3.5 9.6 0.00 0.00 0.00 42 1011.5
20260508204547 59 240 4.3 9.6 0.00 0.00 0.00 43 1011.6
20260508204047 59 281 6.1 9.6 0.00 0.00 0.00 41 1011.6
20260508203548 58 271 2.6 7.0 0.00 0.00 0.00 45 1011.6
20260508203044 58 249 3.5 7.8 0.00 0.00 0.00 41 1011.8
20260508202543 59 295 3.5 9.6 0.00 0.00 0.00 42 1011.9
20260508202043 59 272 5.2 9.6 0.00 0.00 0.00 42 1011.8
20260508201543 60 233 0.0 9.6 0.00 0.00 0.00 41 1011.8
20260508201042 60 196 4.3 9.6 0.00 0.00 0.00 42 1011.9